QPF
0.00 0.00 0.00 0.00 0.00 0.00 0.00 0.00 0.00 0.00 0.00 0.00 0.00 0.00 0.00 0.00 0.00 0.00 0.00 0.00 0.00 0.00 0.00 0.00 0.00 0.00 0.00 0.00 0.00 0.00 0.00 0.00 0.00 0.00 0.00 0.00 0.00 0.00 0.00 0.00 0.00 0.00 0.00
0.00 0.00 0.00 0.00 0.00 0.00 0.00 0.00 0.00 0.00 0.00 0.00 0.00 0.00 0.00 0.00 0.00 0.00 0.00 0.00 0.00 0.00 0.00 0.00 0.00 0.00 0.00 0.00 0.00 0.00 0.00 0.00 0.00 0.00 0.00 0.00 0.00 0.00 0.00 0.00 0.00 0.00 0.00
0.00 0.00 0.00 0.00 0.00 0.00 0.00 0.00 0.00 0.00 0.00 0.00 0.00 0.00 0.00 0.00 0.00 0.00 0.00 0.00 0.00 0.00 0.00 0.00 0.00 0.00 0.00 0.00 0.00 0.00 0.00 0.00 0.00 0.00 0.00 0.00 0.00 0.00 0.00 0.00 0.00 0.00 0.00
0.00 0.00 0.00 0.00 0.00 0.00 0.00 0.00 0.00 0.00 0.00 0.00 0.00 0.00 0.00 0.00 0.00 0.00 0.00 0.00 0.00 0.00 0.00 0.00 0.00 0.00 0.00 0.00 0.00 0.00 0.00 0.00 0.00 0.00 0.00 0.00 0.00 0.00 0.00 0.00 0.00 0.00 0.00
0.00 0.00 0.00 0.00 0.00 0.00 0.00 0.00 0.00 0.00 0.00 0.00 0.00 0.00 0.00 0.00 0.00 0.00 0.00 0.00 0.00 0.00 0.00 0.00 0.00 0.00 0.00 0.00 0.00 0.00 0.00 0.00 0.00 0.00 0.00 0.00 0.00 0.00 0.00 0.00 0.00 0.00 0.00
0.00 0.00 0.00 0.00 0.00 0.00 0.00 0.00 0.00 0.00 0.00 0.00 0.00 0.00 0.00 0.00 0.00 0.00 0.00 0.00 0.00 0.00 0.00 0.00 0.00 0.00 0.00 0.00 0.00 0.00 0.00 0.00 0.00 0.00 0.00 0.00 0.00 0.00 0.00 0.00 0.00 0.00 0.00
0.00 0.00 0.00 0.00 0.00 0.00 0.00 0.00 0.00 0.00 0.00 0.00 0.00 0.00 0.00 0.00 0.00 0.00 0.00 0.00 0.00 0.00 0.00 0.00 0.00 0.00 0.00 0.00 0.00 0.00 0.00 0.00 0.00 0.00 0.00 0.00 0.00 0.00 0.00 0.00 0.00 0.00 0.00
0.00 0.00 0.00 0.00 0.00 0.00 0.00 0.00 0.00 0.00 0.00 0.00 0.00 0.00 0.00 0.00 0.00 0.00 0.00 0.00 0.00 0.00 0.00 0.00 0.00 0.00 0.00 0.00 0.00 0.00 0.00 0.00 0.00 0.00 0.00 0.00 0.00 0.00 0.00 0.00 0.00 0.00 0.00
0.00 0.00 0.00 0.00 0.00 0.00 0.00 0.00 0.00 0.00 0.00 0.00 0.00 0.00 0.00 0.00 0.00 0.00 0.00 0.00 0.00 0.00 0.00 0.00 0.00 0.00 0.00 0.00 0.00 0.00 0.00 0.00 0.00 0.00 0.00 0.00 0.00 0.00 0.00 0.00 0.00 0.00 0.00
0.01 0.00 0.00 0.00 0.00 0.00 0.00 0.00 0.00 0.00 0.00 0.00 0.00 0.00 0.00 0.00 0.00 0.00 0.00 0.00 0.00 0.00 0.00 0.00 0.00 0.00 0.00 0.00 0.00 0.00 0.00 0.00 0.00 0.00 0.00 0.00 0.00 0.00 0.00 0.00 0.00 0.00 0.00
0.02 0.00 0.00 0.00 0.00 0.00 0.00 0.00 0.00 0.00 0.00 0.00 0.00 0.00 0.00 0.00 0.00 0.00 0.00 0.00 0.00 0.00 0.00 0.00 0.00 0.00 0.00 0.00 0.00 0.00 0.00 0.00 0.00 0.00 0.00 0.00 0.00 0.00 0.00 0.00 0.00 0.00 0.00
0.00 0.00 0.00 0.00 0.00 0.00 0.00 0.00 0.00 0.00 0.00 0.00 0.00 0.00 0.00 0.00 0.00 0.00 0.00 0.00 0.00 0.00 0.00 0.00 0.00 0.00 0.00 0.00 0.00 0.00 0.00 0.00 0.00 0.00 0.00 0.00 0.00 0.00 0.00 0.00 0.00 0.00 0.01
0.00 0.00 0.00 0.00 0.00 0.00 0.00 0.00 0.00 0.00 0.00 0.00 0.00 0.00 0.00 0.00 0.00 0.00 0.00 0.00 0.00 0.00 0.00 0.00 0.00 0.00 0.00 0.00 0.00 0.00 0.00 0.00 0.00 0.00 0.00 0.00 0.00 0.00 0.00 0.00 0.00 0.00 0.00
0.00 0.00 0.00 0.00 0.00 0.00 0.00 0.00 0.00 0.00 0.00 0.00 0.00 0.00 0.00 0.00 0.00 0.00 0.00 0.00 0.00 0.00 0.00 0.00 0.00 0.00 0.00 0.00 0.00 0.00 0.00 0.00 0.00 0.00 0.00 0.00 0.00 0.00 0.00 0.00 0.01 0.01 0.00
0.00 0.00 0.00 0.00 0.00 0.00 0.00 0.00 0.00 0.00 0.00 0.00 0.00 0.00 0.00 0.00 0.00 0.00 0.00 0.00 0.00 0.00 0.00 0.00 0.00 0.00 0.00 0.00 0.00 0.00 0.00 0.00 0.00 0.00 0.00 0.00 0.00 0.00 0.00 0.01 0.01 0.00 0.01
0.01 0.01 0.00 0.00 0.00 0.00 0.00 0.00 0.00 0.00 0.00 0.00 0.00 0.00 0.00 0.00 0.00 0.00 0.00 0.00 0.00 0.00 0.00 0.00 0.00 0.00 0.00 0.00 0.00 0.00 0.00 0.00 0.00 0.00 0.00 0.00 0.00 0.00 0.00 0.00 0.00 0.00 0.01
0.02 0.02 0.01 0.01 0.01 0.01 0.01 0.01 0.01 0.00 0.00 0.00 0.00 0.00 0.00 0.00 0.00 0.00 0.00 0.00 0.00 0.00 0.00 0.00 0.00 0.00 0.00 0.00 0.00 0.00 0.00 0.00 0.00 0.00 0.00 0.00 0.00 0.00 0.00 0.00 0.00 0.00 0.01
0.00 0.01 0.00 0.00 0.01 0.03 0.02 0.02 0.02 0.01 0.01 0.00 0.00 0.00 0.00 0.00 0.00 0.00 0.00 0.01 0.01 0.01 0.00 0.02 0.03 0.05 0.04 0.01 0.00 0.00 0.00 0.00 0.00 0.00 0.00 0.00 0.00 0.00 0.00 0.00 0.00 0.00 0.01
0.00 0.00 0.00 0.00 0.00 0.00 0.05 0.08 0.08 0.04 0.01 0.03 0.05 0.02 0.01 0.01 0.02 0.03 0.05 0.05 0.11 0.11 0.14 0.13 0.21 0.17 0.12 0.06 0.02 0.01 0.00 0.01 0.00 0.00 0.01 0.01 0.01 0.00 0.00 0.00 0.01 0.01 0.01
0.00 0.00 0.01 0.03 0.09 0.09 0.13 0.19 0.27 0.21 0.23 0.26 0.19 0.16 0.11 0.11 0.12 0.13 0.12 0.06 0.19 0.31 0.33 0.31 0.42 0.29 0.20 0.17 0.16 0.14 0.07 0.04 0.01 0.00 0.00 0.00 0.00 0.00 0.00 0.00 0.00 0.01 0.01
0.00 0.01 0.07 0.10 0.16 0.19 0.19 0.12 0.10 0.13 0.17 0.29 0.24 0.20 0.21 0.16 0.17 0.11 0.04 0.01 0.00 0.04 0.06 0.05 0.18 0.21 0.24 0.30 0.37 0.40 0.40 0.24 0.08 0.02 0.01 0.01 0.01 0.00 0.00 0.01 0.01 0.01 0.01
0.02 0.03 0.01 0.03 0.10 0.17 0.22 0.24 0.16 0.14 0.07 0.10 0.16 0.07 0.07 0.07 0.09 0.09 0.03 0.01 0.00 0.04 0.08 0.16 0.21 0.16 0.15 0.14 0.14 0.18 0.16 0.10 0.04 0.02 0.01 0.01 0.00 0.00 0.00 0.00 0.00 0.00 0.00
0.03 0.04 0.08 0.06 0.07 0.12 0.19 0.24 0.25 0.20 0.16 0.12 0.07 0.04 0.04 0.04 0.04 0.08 0.10 0.05 0.04 0.04 0.07 0.11 0.12 0.11 0.08 0.08 0.07 0.07 0.08 0.07 0.04 0.02 0.00 0.00 0.00 0.00 0.00 0.00 0.00 0.00 0.00
0.01 0.04 0.06 0.08 0.07 0.07 0.09 0.09 0.13 0.14 0.10 0.04 0.02 0.01 0.01 0.01 0.00 0.00 0.01 0.02 0.01 0.02 0.07 0.13 0.13 0.06 0.03 0.04 0.04 0.06 0.05 0.04 0.02 0.00 0.00 0.00 0.00 0.00 0.00 0.00 0.00 0.00 0.00
0.00 0.00 0.01 0.01 0.01 0.01 0.02 0.03 0.02 0.03 0.02 0.01 0.01 0.00 0.00 0.01 0.02 0.02 0.02 0.02 0.02 0.03 0.04 0.06 0.07 0.08 0.06 0.07 0.06 0.03 0.02 0.01 0.00 0.00 0.00 0.00 0.00 0.00 0.00 0.00 0.00 0.00 0.00
0.00 0.00 0.00 0.00 0.00 0.00 0.00 0.00 0.00 0.00 0.00 0.00 0.00 0.01 0.02 0.03 0.03 0.04 0.04 0.04 0.02 0.02 0.01 0.01 0.01 0.01 0.01 0.01 0.01 0.00 0.00 0.00 0.00 0.00 0.00 0.00 0.00 0.00 0.00 0.00 0.00 0.00 0.00
MSLP
1010.87 1011.60 1012.38 1013.00 1013.61 1014.08 1014.34 1014.70 1014.99 1015.21 1015.63 1016.03 1016.52 1017.02 1017.60 1017.98 1018.27 1018.65 1018.98 1019.26 1019.54 1019.73 1019.82 1019.92 1019.95 1019.90 1020.00 1020.03 1020.02 1020.01 1020.18 1020.32 1020.68 1020.10 1019.63 1019.06 1018.88 1018.76 1018.40 1018.23 1017.94 1017.83 1017.48
1010.03 1010.78 1011.52 1012.28 1013.00 1013.47 1013.96 1014.20 1014.52 1014.87 1015.34 1015.80 1016.18 1016.65 1017.18 1017.58 1017.89 1018.24 1018.61 1018.88 1019.24 1019.47 1019.56 1019.76 1019.70 1019.67 1019.82 1019.93 1020.05 1020.08 1020.11 1019.97 1020.26 1020.33 1019.80 1019.40 1019.00 1018.46 1017.99 1017.94 1017.37 1017.08 1016.96
1008.94 1009.90 1010.70 1011.36 1011.96 1012.44 1013.02 1013.71 1014.10 1014.50 1014.84 1015.50 1015.86 1016.25 1016.65 1017.08 1017.47 1017.75 1018.08 1018.38 1018.67 1018.87 1018.94 1019.23 1019.37 1019.46 1019.68 1019.68 1019.74 1019.88 1019.81 1019.74 1019.79 1019.90 1019.77 1019.30 1018.88 1018.34 1017.99 1017.69 1017.40 1016.80 1016.39
1007.78 1008.77 1009.56 1010.23 1010.89 1011.66 1012.38 1013.11 1013.60 1013.97 1014.42 1014.82 1015.30 1015.68 1015.97 1016.42 1016.88 1017.26 1017.62 1017.90 1018.14 1018.40 1018.54 1018.61 1018.72 1018.90 1019.07 1019.18 1019.33 1019.44 1019.45 1019.56 1019.56 1019.58 1019.47 1019.28 1019.00 1018.09 1018.00 1017.92 1017.53 1016.98 1016.54
1007.22 1007.80 1008.50 1009.33 1010.19 1010.91 1011.66 1012.34 1012.97 1013.44 1013.79 1014.23 1014.65 1015.06 1015.46 1015.87 1016.29 1016.67 1017.04 1017.37 1017.64 1017.90 1018.00 1018.12 1018.20 1018.24 1018.34 1018.51 1018.84 1018.99 1019.14 1019.26 1019.19 1019.20 1019.26 1019.12 1018.79 1018.43 1018.23 1017.84 1017.57 1017.08 1016.41
1006.26 1007.10 1007.92 1008.61 1009.32 1009.87 1010.56 1011.37 1012.17 1012.74 1013.10 1013.61 1014.09 1014.47 1014.86 1015.17 1015.56 1015.95 1016.35 1016.76 1017.02 1017.31 1017.47 1017.48 1017.65 1017.77 1017.84 1017.94 1018.05 1018.16 1018.23 1018.49 1018.58 1018.66 1018.70 1018.80 1018.35 1018.06 1017.84 1017.69 1017.36 1017.11 1016.52
1004.96 1006.26 1007.09 1007.72 1008.35 1009.02 1009.69 1010.48 1011.20 1011.78 1012.41 1012.71 1013.16 1013.68 1014.05 1014.51 1014.86 1015.26 1015.62 1016.00 1016.32 1016.53 1016.74 1016.92 1017.06 1017.13 1017.26 1017.38 1017.41 1017.44 1017.43 1017.39 1017.39 1017.44 1017.74 1017.58 1017.48 1017.29 1017.25 1017.17 1016.98 1016.62 1016.26
1004.30 1005.27 1006.22 1006.90 1007.46 1008.24 1008.88 1009.40 1010.16 1010.86 1011.42 1011.91 1012.35 1012.79 1013.27 1013.68 1014.12 1014.58 1014.99 1015.42 1015.55 1015.67 1015.85 1016.05 1016.30 1016.42 1016.50 1016.72 1016.91 1016.92 1016.74 1016.48 1016.28 1016.43 1016.66 1016.51 1016.45 1016.46 1016.46 1016.25 1016.22 1016.08 1015.60
1003.22 1004.20 1004.94 1005.93 1006.79 1007.43 1008.00 1008.44 1009.12 1009.85 1010.46 1010.90 1011.45 1011.96 1012.37 1012.89 1013.36 1013.83 1014.46 1014.95 1014.99 1014.93 1014.98 1015.20 1015.47 1015.66 1015.71 1016.04 1016.40 1016.57 1016.33 1015.82 1015.25 1015.44 1015.52 1015.56 1015.56 1015.47 1015.56 1015.84 1015.93 1016.01 1015.45
1003.78 1003.38 1004.06 1004.78 1005.69 1006.18 1006.80 1007.46 1008.16 1008.82 1009.32 1010.07 1010.53 1010.92 1011.44 1011.92 1012.42 1012.92 1013.52 1014.02 1014.45 1014.44 1014.51 1014.49 1014.64 1014.76 1015.03 1015.36 1015.76 1015.78 1015.76 1015.11 1015.06 1014.84 1015.09 1015.15 1015.16 1015.00 1014.96 1015.23 1015.21 1015.36 1015.37
1003.35 1002.89 1003.32 1003.68 1004.49 1005.06 1005.97 1006.67 1007.26 1007.94 1008.62 1009.19 1009.67 1010.08 1010.56 1011.05 1011.42 1011.95 1012.44 1012.98 1013.14 1013.46 1013.61 1013.66 1013.74 1013.86 1014.21 1014.50 1014.66 1014.84 1014.61 1014.31 1014.53 1014.72 1014.74 1014.67 1014.41 1014.28 1014.14 1014.13 1014.18 1014.34 1014.43
1002.60 1002.34 1002.54 1002.99 1003.76 1004.32 1004.97 1005.73 1006.41 1007.11 1007.77 1008.32 1008.85 1009.28 1009.63 1010.06 1010.51 1010.94 1011.38 1011.81 1011.88 1012.25 1012.25 1012.27 1012.47 1012.80 1013.08 1013.22 1013.33 1013.54 1013.59 1013.80 1014.20 1014.36 1014.47 1014.30 1014.10 1013.90 1013.54 1013.25 1012.96 1013.13 1013.06
1003.16 1001.76 1001.82 1002.53 1003.04 1003.46 1004.10 1004.74 1005.59 1006.30 1006.89 1007.45 1007.94 1008.32 1008.63 1008.95 1009.35 1009.83 1010.23 1010.68 1010.99 1011.37 1011.20 1011.34 1011.66 1011.88 1012.09 1012.31 1012.42 1012.55 1012.79 1013.41 1013.54 1013.75 1013.60 1013.43 1013.30 1013.14 1012.88 1012.64 1012.27 1012.33 1012.46
1003.32 1002.10 1001.61 1001.94 1002.28 1002.68 1003.28 1003.80 1004.42 1005.12 1005.76 1006.28 1006.87 1007.29 1007.66 1007.97 1008.26 1008.66 1009.53 1010.13 1010.36 1010.92 1010.68 1010.86 1011.06 1011.37 1011.61 1011.66 1011.82 1011.87 1012.12 1012.28 1012.38 1012.38 1012.40 1012.34 1012.38 1012.42 1012.35 1012.15 1012.30 1012.38 1012.74
1003.39 1001.42 1001.04 1001.18 1001.66 1002.06 1002.38 1002.75 1003.33 1003.80 1004.39 1005.11 1005.68 1006.32 1006.65 1006.81 1006.93 1007.34 1007.91 1008.67 1009.07 1009.41 1009.67 1010.24 1010.69 1011.06 1011.15 1011.16 1011.14 1011.10 1011.35 1011.57 1011.61 1011.46 1011.58 1011.71 1011.84 1011.81 1011.77 1011.58 1011.80 1012.19 1012.54
1003.66 1001.86 1000.72 1000.74 1001.18 1001.46 1001.92 1002.76 1003.25 1003.12 1003.58 1004.13 1004.80 1005.28 1005.65 1006.01 1006.28 1006.71 1006.93 1007.16 1007.34 1007.85 1009.38 1009.54 1009.76 1010.06 1010.21 1010.24 1010.30 1010.23 1010.26 1010.33 1010.38 1010.48 1010.71 1010.89 1011.01 1011.14 1011.16 1011.20 1011.35 1011.80 1012.08
1004.40 1003.55 1002.08 1001.23 1001.01 1001.19 1001.63 1002.24 1003.16 1003.93 1004.05 1004.35 1004.52 1004.72 1005.16 1005.46 1005.80 1006.06 1006.14 1006.45 1006.76 1007.95 1008.36 1008.76 1009.00 1009.18 1009.24 1009.28 1009.25 1009.26 1009.20 1009.17 1009.23 1009.40 1009.62 1009.94 1010.14 1010.34 1010.58 1010.82 1011.16 1011.40 1011.60
1004.96 1004.20 1003.30 1002.20 1001.84 1001.70 1001.49 1001.76 1002.24 1003.14 1003.92 1004.56 1004.85 1005.13 1005.17 1005.34 1006.09 1006.36 1006.24 1006.87 1007.93 1007.89 1007.81 1007.94 1007.92 1007.96 1008.01 1008.12 1008.28 1008.24 1008.28 1008.34 1008.50 1008.74 1008.97 1009.16 1009.54 1009.88 1010.12 1010.46 1010.80 1010.89 1010.94
1005.68 1004.79 1003.90 1003.16 1002.55 1001.87 1001.81 1001.53 1001.70 1002.32 1003.02 1003.79 1004.87 1005.62 1006.20 1006.34 1006.63 1006.59 1006.59 1006.63 1007.20 1007.40 1007.19 1007.12 1007.31 1007.40 1007.49 1007.63 1007.40 1007.34 1007.41 1007.75 1008.07 1008.51 1008.68 1008.56 1008.60 1009.03 1009.54 1009.83 1009.95 1010.10 1010.26
1006.11 1005.34 1004.41 1003.54 1003.03 1002.26 1002.05 1001.65 1001.89 1002.12 1002.80 1003.77 1004.29 1005.31 1006.14 1006.49 1007.10 1007.63 1007.66 1007.53 1007.44 1007.64 1007.50 1007.34 1007.57 1007.66 1007.99 1007.53 1007.00 1006.39 1006.94 1007.18 1007.39 1007.85 1008.26 1008.34 1008.14 1008.24 1008.90 1009.14 1009.35 1009.55 1009.71
1006.58 1005.80 1004.84 1004.26 1003.79 1002.99 1003.03 1002.36 1002.51 1002.80 1003.35 1004.31 1005.24 1005.45 1005.78 1006.63 1007.77 1008.08 1008.33 1008.42 1008.39 1008.30 1008.34 1008.42 1008.31 1008.72 1009.07 1009.20 1009.13 1008.96 1007.99 1007.34 1006.84 1007.30 1007.70 1008.03 1008.03 1008.12 1008.40 1008.61 1008.77 1009.06 1009.08
1007.51 1006.83 1006.47 1006.01 1004.98 1004.94 1004.46 1003.98 1004.56 1004.66 1004.69 1005.38 1006.25 1006.70 1006.55 1006.88 1008.60 1009.28 1009.86 1009.92 1010.11 1010.05 1009.64 1009.48 1010.34 1009.16 1009.09 1009.04 1010.10 1011.54 1010.74 1010.57 1010.01 1009.42 1008.80 1008.50 1008.04 1008.19 1008.23 1008.39 1008.30 1008.56 1008.59
1008.30 1008.22 1008.03 1007.33 1007.53 1006.78 1006.50 1006.21 1006.10 1006.42 1006.50 1006.54 1007.31 1008.04 1007.84 1009.06 1009.07 1011.42 1011.45 1011.58 1011.34 1011.08 1011.43 1011.04 1011.05 1011.48 1010.14 1009.14 1009.69 1010.88 1013.72 1013.30 1012.14 1011.48 1010.29 1009.56 1009.17 1008.91 1008.35 1008.17 1008.07 1008.15 1008.14
1009.91 1009.57 1009.45 1009.30 1008.99 1009.08 1008.82 1008.41 1007.97 1008.73 1009.01 1008.38 1008.32 1009.46 1010.47 1009.32 1009.80 1012.68 1012.46 1013.27 1013.10 1012.07 1011.94 1012.75 1011.87 1011.49 1012.02 1010.63 1011.34 1012.65 1013.11 1013.04 1011.89 1011.22 1010.91 1010.54 1009.91 1009.32 1008.76 1008.60 1008.51 1008.24 1008.06
1011.17 1011.04 1011.03 1011.40 1011.08 1010.60 1010.38 1010.11 1010.46 1010.57 1011.49 1009.16 1009.63 1011.84 1011.88 1011.95 1013.60 1013.47 1014.06 1013.83 1013.60 1013.56 1013.45 1013.24 1013.34 1012.33 1013.18 1013.27 1013.60 1013.62 1013.15 1012.69 1012.15 1011.46 1011.25 1010.68 1010.36 1010.13 1009.78 1009.32 1009.06 1008.69 1008.55
1012.10 1012.27 1012.31 1012.32 1012.76 1012.96 1012.82 1012.96 1013.10 1012.36 1012.14 1011.70 1012.02 1012.78 1013.79 1013.25 1013.43 1013.69 1014.66 1014.85 1014.76 1015.60 1015.39 1015.05 1015.30 1014.91 1014.62 1014.67 1014.72 1014.12 1013.57 1013.15 1012.11 1012.22 1011.74 1011.50 1011.27 1011.05 1010.75 1010.27 1009.84 1009.54 1009.30
Thickness
5815 5814 5812 5813 5813 5813 5814 5815 5815 5818 5817 5814 5813 5811 5807 5805 5805 5802 5800 5798 5794 5792 5794 5794 5794 5797 5796 5798 5800 5801 5799 5798 5790 5798 5806 5811 5812 5813 5814 5815 5815 5814 5815
5817 5815 5814 5813 5812 5813 5813 5815 5816 5816 5816 5813 5814 5812 5809 5808 5808 5806 5802 5802 5797 5794 5794 5794 5796 5799 5797 5798 5798 5799 5801 5803 5798 5794 5804 5808 5811 5817 5819 5818 5820 5820 5820
5821 5816 5814 5815 5816 5818 5816 5814 5816 5815 5815 5814 5813 5811 5810 5809 5808 5809 5807 5804 5802 5801 5799 5797 5798 5799 5797 5799 5800 5799 5802 5805 5805 5802 5802 5810 5813 5818 5818 5821 5823 5825 5825
5827 5820 5817 5817 5819 5818 5816 5814 5814 5816 5814 5814 5813 5812 5812 5811 5810 5810 5809 5807 5805 5804 5803 5802 5802 5802 5802 5802 5803 5803 5804 5804 5805 5804 5805 5807 5811 5820 5819 5816 5817 5824 5824
5826 5824 5821 5818 5818 5817 5817 5815 5814 5814 5816 5814 5814 5813 5813 5813 5812 5809 5810 5809 5807 5805 5805 5804 5805 5807 5808 5808 5806 5805 5805 5804 5805 5805 5805 5806 5808 5811 5812 5818 5817 5821 5824
5828 5824 5822 5820 5817 5819 5819 5817 5815 5815 5816 5815 5814 5813 5813 5815 5815 5813 5812 5809 5809 5807 5805 5806 5807 5807 5808 5809 5810 5811 5812 5807 5805 5805 5806 5805 5809 5813 5816 5816 5817 5815 5813
5832 5825 5823 5822 5820 5820 5820 5818 5817 5816 5814 5816 5816 5815 5814 5815 5815 5814 5813 5813 5809 5809 5808 5808 5807 5810 5810 5810 5811 5813 5814 5815 5816 5816 5811 5813 5814 5817 5818 5816 5816 5818 5816
5827 5825 5824 5823 5822 5820 5819 5820 5818 5817 5816 5815 5816 5816 5815 5817 5816 5814 5813 5813 5812 5811 5812 5812 5811 5812 5813 5812 5812 5813 5815 5819 5820 5820 5819 5821 5823 5823 5822 5822 5821 5821 5824
5827 5827 5829 5824 5820 5819 5819 5820 5820 5817 5817 5818 5817 5816 5817 5816 5815 5815 5811 5810 5811 5813 5816 5816 5815 5815 5816 5814 5811 5810 5813 5819 5826 5827 5827 5827 5826 5827 5825 5822 5817 5813 5815
5819 5828 5831 5830 5823 5823 5822 5821 5820 5819 5819 5817 5817 5819 5819 5818 5817 5815 5814 5814 5810 5811 5814 5816 5817 5818 5817 5816 5814 5813 5812 5819 5822 5825 5827 5827 5827 5827 5827 5823 5821 5813 5810
5816 5830 5832 5834 5828 5828 5824 5821 5820 5819 5817 5817 5818 5819 5819 5820 5820 5817 5815 5818 5817 5815 5817 5818 5821 5820 5818 5817 5817 5819 5819 5825 5823 5822 5823 5825 5827 5828 5828 5826 5823 5819 5812
5819 5825 5832 5833 5830 5829 5826 5823 5821 5818 5815 5815 5815 5815 5820 5822 5821 5819 5817 5819 5823 5821 5822 5826 5827 5825 5823 5823 5822 5823 5823 5821 5821 5819 5818 5819 5821 5822 5826 5828 5828 5825 5822
5805 5826 5829 5829 5830 5831 5826 5823 5819 5817 5815 5814 5814 5815 5818 5823 5825 5822 5820 5820 5821 5823 5828 5828 5827 5825 5823 5822 5823 5823 5822 5820 5820 5817 5818 5820 5822 5824 5826 5825 5826 5824 5821
5794 5813 5825 5826 5828 5831 5829 5826 5822 5819 5818 5818 5816 5816 5818 5821 5825 5828 5822 5819 5819 5817 5823 5823 5821 5820 5821 5824 5824 5823 5822 5824 5823 5822 5822 5824 5825 5824 5822 5822 5818 5815 5810
5786 5812 5819 5824 5825 5826 5828 5826 5824 5826 5825 5821 5821 5818 5816 5819 5828 5830 5828 5824 5824 5823 5821 5819 5817 5816 5818 5820 5821 5823 5822 5821 5821 5823 5822 5822 5821 5820 5819 5819 5815 5809 5802
5774 5798 5813 5817 5818 5822 5822 5819 5818 5824 5823 5823 5822 5823 5824 5824 5824 5823 5824 5826 5826 5822 5813 5814 5814 5814 5815 5817 5818 5820 5823 5823 5823 5822 5822 5821 5818 5815 5814 5813 5810 5803 5798
5758 5771 5790 5801 5811 5814 5815 5815 5812 5811 5811 5812 5813 5816 5817 5821 5815 5816 5818 5819 5818 5811 5813 5812 5811 5811 5813 5814 5817 5819 5820 5823 5824 5823 5822 5818 5816 5814 5810 5806 5801 5798 5794
5743 5755 5768 5785 5793 5799 5808 5811 5813 5810 5807 5805 5803 5803 5806 5807 5805 5805 5807 5806 5800 5802 5808 5806 5807 5810 5812 5813 5815 5816 5818 5820 5820 5817 5816 5815 5811 5807 5804 5800 5794 5792 5791
5724 5740 5754 5768 5779 5788 5796 5804 5806 5807 5807 5803 5793 5790 5787 5790 5791 5794 5797 5802 5796 5797 5801 5804 5805 5804 5806 5808 5811 5814 5815 5813 5811 5808 5808 5810 5809 5804 5798 5794 5792 5788 5786
5710 5724 5740 5754 5764 5776 5782 5791 5795 5795 5794 5790 5789 5783 5777 5777 5776 5772 5774 5779 5782 5785 5789 5792 5789 5789 5789 5795 5802 5808 5806 5803 5803 5802 5799 5799 5799 5798 5790 5788 5786 5783 5781
5696 5710 5727 5739 5748 5759 5765 5775 5779 5780 5780 5777 5768 5771 5768 5765 5759 5760 5762 5765 5769 5772 5773 5771 5771 5770 5772 5773 5772 5771 5779 5783 5780 5790 5789 5783 5783 5780 5780 5780 5779 5776 5774
5677 5689 5699 5711 5726 5731 5742 5750 5750 5751 5757 5755 5748 5746 5748 5749 5737 5738 5736 5740 5741 5743 5750 5752 5746 5744 5755 5760 5750 5737 5733 5721 5743 5756 5765 5768 5773 5771 5770 5770 5771 5767 5767
5659 5665 5672 5684 5689 5701 5710 5718 5724 5724 5725 5726 5723 5723 5727 5718 5718 5705 5708 5711 5717 5722 5722 5727 5726 5721 5734 5743 5734 5726 5704 5704 5714 5726 5738 5747 5752 5753 5757 5759 5759 5757 5757
5632 5640 5648 5655 5663 5667 5675 5683 5692 5688 5687 5695 5698 5692 5688 5701 5696 5673 5684 5672 5683 5699 5703 5698 5706 5711 5706 5712 5702 5695 5695 5693 5707 5718 5721 5725 5732 5738 5742 5743 5743 5744 5745
5610 5616 5622 5624 5633 5642 5644 5651 5659 5660 5654 5660 5669 5657 5660 5661 5652 5659 5654 5665 5668 5668 5673 5676 5677 5691 5683 5684 5678 5676 5682 5690 5696 5703 5704 5712 5716 5717 5719 5722 5724 5726 5726
5591 5594 5600 5605 5607 5610 5615 5620 5624 5629 5626 5631 5638 5640 5633 5640 5642 5644 5639 5642 5642 5638 5640 5644 5644 5650 5655 5656 5656 5664 5670 5674 5683 5683 5686 5689 5691 5692 5694 5697 5699 5701 5701